{"data":{"norad_id":67935,"epoch":"2026-05-25T05:33:30.043008Z","epoch_age_seconds":50923,"freshness":"FRESH","line1":"1 67935U 26037D   26145.23159772  .00014444  00000+0  53326-3 0  9990","line2":"2 67935  43.0014 118.7396 0001813 275.5171  84.5474 15.27586011 15048","mean_motion":15.27586011,"eccentricity":0.0001813,"inclination_deg":43.0014,"raan_deg":118.7396,"arg_perigee_deg":275.5171,"mean_anomaly_deg":84.5474,"bstar":0.00053326,"rev_number":1504,"period_min":94.26637777714,"perigee_km":481.78716722624,"apogee_km":484.27502677822,"semimajor_km":6861.1680970022,"source":"CELESTRAK","updated_at":"2026-05-25T13:38:21.766635Z"}}